Harrisburg, IL

7:24 PM CST on December 09, 2019 (GMT -0600)
Harrisburg-Raleigh

Weather History for KHSB - October, 2019

Change the Weather History Date:

Sunday, October 13, 2019

  Actual Average (KMWA) Record (KMWA)
Temperature  
Mean Temperature 51 °F -  
Max Temperature 69 °F 71 °F 86 °F (1975)
Min Temperature 33 °F 46 °F 26 °F (1988)
Degree Days  
Heating Degree Days 14    
Growing Degree Days 1 (Base 50)    
Moisture  
Dew Point 32 °F    
Average Humidity 56    
Maximum Humidity 91    
Minimum Humidity 18    
Precipitation  
Precipitation 0.00 in - - ()
Sea Level Pressure  
Sea Level Pressure 30.01 in    
Wind  
Wind Speed 3 mph ()    
Max Wind Speed 13 mph    
Max Gust Speed 17 mph    
Visibility 10.0 miles    
Events      
Averages and records for this station are not official NWS values.
T = Trace of Precipitation, MM = Missing Value Source: Averaged Metar Reports

Daily Weather History Graph

Daily Weather History Graph

Search for Another Location

Airport or City:

Astronomy

Oct. 13, 2019 Rise Set
Actual Time 7:00 AM CDT 6:19 PM CDT
Civil Twilight 6:34 AM CDT 6:46 PM CDT
Nautical Twilight 6:03 AM CDT 7:16 PM CDT
Astronomical Twilight 5:33 AM CDT 7:46 PM CDT
Moon 6:41 PM CDT (10/13) 6:35 AM CDT (10/13)
Length of Visible Light 12h 12m
Length of Day
11h 19m
Full, 100% of the Moon is Illuminated
Oct 13
Full
Oct 13
Full
Oct 21
Last Quarter
Oct 27
New
Nov 4
First Quarter

Hourly Weather History & Observations

Time (CDT) Temp. Windchill Dew Point Humidity Pressure Visibility Wind Dir Wind Speed Gust Speed Precip Events Conditions
12:15 AM 37.6 °F - 34.7 °F 89% 30.06 in 10.0 mi Calm Calm - N/A   Clear
12:35 AM 36.5 °F 33.9 °F 33.8 °F 90% 30.06 in 10.0 mi West 3.5 mph - N/A   Clear
12:55 AM 38.1 °F - 34.9 °F 88% 30.06 in 10.0 mi Calm Calm - N/A   Clear
1:15 AM 35.4 °F - 32.4 °F 89% 30.05 in 10.0 mi Calm Calm - N/A   Clear
1:35 AM 34.9 °F - 32.0 °F 89% 30.05 in 10.0 mi Calm Calm - N/A   Clear
1:55 AM 35.8 °F - 32.9 °F 89% 30.04 in 10.0 mi Calm Calm - N/A   Clear
2:15 AM 33.8 °F - 31.5 °F 91% 30.04 in 10.0 mi Calm Calm - N/A   Clear
2:35 AM 34.2 °F - 31.8 °F 91% 30.04 in 10.0 mi Calm Calm - N/A   Clear
2:55 AM 33.3 °F - 30.9 °F 91% 30.04 in 10.0 mi Calm Calm - N/A   Clear
3:15 AM 33.4 °F - 31.1 °F 91% 30.03 in 7.0 mi Calm Calm - N/A   Clear
3:35 AM 34.7 °F - 32.0 °F 90% 30.03 in 10.0 mi Calm Calm - N/A   Clear
3:55 AM 33.4 °F - 31.1 °F 91% 30.03 in 10.0 mi Calm Calm - N/A   Clear
4:15 AM 33.4 °F - 30.9 °F 90% 30.03 in 10.0 mi Calm Calm - N/A   Clear
4:35 AM 33.8 °F - 31.3 °F 90% 30.04 in 10.0 mi Calm Calm - N/A   Clear
4:55 AM 35.1 °F - 32.2 °F 89% 30.04 in 10.0 mi Calm Calm - N/A   Clear
5:35 AM 33.1 °F - 30.7 °F 91% 30.04 in 10.0 mi Calm Calm - N/A   Clear
5:55 AM 33.6 °F - 31.3 °F 91% 30.04 in 10.0 mi Calm Calm - N/A   Clear
6:15 AM 34.0 °F - 31.6 °F 91% 30.04 in 10.0 mi Calm Calm - N/A   Clear
6:35 AM 34.2 °F - 31.8 °F 91% 30.04 in 10.0 mi Calm Calm - N/A   Clear
6:55 AM 34.2 °F - 31.8 °F 91% 30.04 in 10.0 mi Calm Calm - N/A   Clear
7:15 AM 34.3 °F - 32.0 °F 91% 30.04 in 10.0 mi Calm Calm - N/A   Clear
7:55 AM 38.3 °F - 35.4 °F 89% 30.04 in 10.0 mi Calm Calm - N/A   Clear
8:35 AM 43.5 °F 40.9 °F 38.5 °F 82% 30.04 in 10.0 mi SSW 4.6 mph - N/A   Clear
8:55 AM 46.6 °F - 39.6 °F 77% 30.05 in 10.0 mi SW 5.8 mph - N/A   Clear
9:15 AM 49.5 °F - 39.0 °F 67% 30.04 in 10.0 mi SW 5.8 mph - N/A   Clear
9:35 AM 52.2 °F - 38.5 °F 60% 30.04 in 10.0 mi SW 6.9 mph - N/A   Clear
9:55 AM 54.3 °F - 37.0 °F 52% 30.04 in 10.0 mi WSW 5.8 mph - N/A   Clear
10:15 AM 56.3 °F - 35.2 °F 45% 30.04 in 10.0 mi SW 8.1 mph - N/A   Clear
10:35 AM 58.5 °F - 33.6 °F 39% 30.04 in 10.0 mi SW 9.2 mph - N/A   Clear
10:55 AM 60.3 °F - 32.9 °F 36% 30.04 in 10.0 mi SW 10.4 mph - N/A   Clear
11:15 AM 61.9 °F - 32.2 °F 33% 30.03 in 10.0 mi SSW 9.2 mph - N/A   Clear
11:35 AM 62.8 °F - 30.4 °F 30% 30.03 in 10.0 mi SW 9.2 mph - N/A   Clear
11:55 AM 63.5 °F - 29.5 °F 28% 30.02 in 10.0 mi WSW 8.1 mph 17.3 mph N/A   Clear
12:15 PM 65.1 °F - 29.5 °F 26% 30.02 in 10.0 mi SW 11.5 mph - N/A   Clear
12:35 PM 65.7 °F - 28.0 °F 24% 30.01 in 10.0 mi WSW 10.4 mph - N/A   Clear
12:55 PM 65.7 °F - 27.7 °F 24% 30.00 in 10.0 mi WSW 8.1 mph 16.1 mph N/A   Clear
1:15 PM 66.9 °F - 27.9 °F 23% 29.99 in 10.0 mi WSW 12.7 mph - N/A   Clear
1:35 PM 67.6 °F - 27.5 °F 22% 29.99 in 10.0 mi WSW 9.2 mph 16.1 mph N/A   Clear
1:55 PM 67.3 °F - 27.5 °F 22% 29.98 in 10.0 mi SW 12.7 mph 16.1 mph N/A   Clear
2:15 PM 68.0 °F - 27.0 °F 21% 29.98 in 10.0 mi WSW 10.4 mph 17.3 mph N/A   Clear
2:35 PM 68.9 °F - 26.1 °F 20% 29.97 in 10.0 mi WSW 12.7 mph - N/A   Clear
2:55 PM 69.1 °F - 24.8 °F 19% 29.97 in 10.0 mi WSW 11.5 mph 16.1 mph N/A   Clear
3:15 PM 69.1 °F - 24.1 °F 18% 29.97 in 10.0 mi SSW 9.2 mph 16.1 mph N/A   Clear
3:35 PM 69.1 °F - 23.0 °F 18% 29.96 in 10.0 mi WSW 10.4 mph 16.1 mph N/A   Clear
3:55 PM 68.7 °F - 23.0 °F 18% 29.96 in 10.0 mi SW 12.7 mph 17.3 mph N/A   Clear
4:15 PM 68.5 °F - 24.4 °F 19% 29.96 in 10.0 mi SSW 9.2 mph - N/A   Clear
4:35 PM 68.9 °F - 25.3 °F 19% 29.96 in 10.0 mi SW 8.1 mph - N/A   Clear
4:55 PM 68.4 °F - 25.7 °F 20% 29.96 in 10.0 mi SSW 11.5 mph - N/A   Clear
5:15 PM 67.3 °F - 25.5 °F 21% 29.96 in 10.0 mi SW 12.7 mph - N/A   Clear
5:35 PM 66.4 °F - 27.5 °F 23% 29.96 in 10.0 mi SW 12.7 mph - N/A   Clear
5:55 PM 64.8 °F - 29.5 °F 27% 29.96 in 10.0 mi West 8.1 mph - N/A   Clear
6:15 PM 61.9 °F - 31.3 °F 32% 29.96 in 10.0 mi SSW 5.8 mph - N/A   Clear
6:35 PM 60.3 °F - 32.4 °F 35% 29.96 in 10.0 mi SSW 4.6 mph - N/A   Clear
6:55 PM 58.3 °F - 33.3 °F 39% 29.97 in 10.0 mi SSW 4.6 mph - N/A   Clear
7:15 PM 57.2 °F - 33.8 °F 41% 29.97 in 10.0 mi SSW 3.5 mph - N/A   Clear
7:35 PM 55.8 °F - 34.7 °F 45% 29.98 in 10.0 mi SSW 4.6 mph - N/A   Clear
7:55 PM 55.2 °F - 35.2 °F 47% 29.99 in 10.0 mi SSW 4.6 mph - N/A   Clear
8:15 PM 54.1 °F - 35.8 °F 50% 29.99 in 10.0 mi SSW 4.6 mph - N/A   Clear
8:35 PM 52.9 °F - 36.5 °F 54% 29.99 in 10.0 mi SW 3.5 mph - N/A   Clear
8:55 PM 52.3 °F - 36.5 °F 55% 30.00 in 10.0 mi SW 3.5 mph - N/A   Clear
9:15 PM 51.4 °F - 36.9 °F 58% 30.00 in 10.0 mi SW 3.5 mph - N/A   Clear
9:55 PM 49.6 °F - 37.2 °F 62% 30.00 in 10.0 mi Calm Calm - N/A   Clear
10:15 PM 51.3 °F - 37.6 °F 60% 30.01 in 10.0 mi WSW 4.6 mph - N/A   Clear
10:35 PM 51.8 °F - 37.4 °F 58% 30.02 in 10.0 mi SW 4.6 mph - N/A   Clear
10:55 PM 51.8 °F - 37.4 °F 58% 30.02 in 10.0 mi SW 4.6 mph - N/A   Clear
11:15 PM 51.4 °F - 37.8 °F 60% 30.02 in 10.0 mi SW 3.5 mph - N/A   Clear
11:35 PM 50.9 °F - 37.8 °F 61% 30.02 in 10.0 mi SW 4.6 mph - N/A   Clear
11:55 PM 50.2 °F - 38.3 °F 64% 30.02 in 10.0 mi SW 3.5 mph - N/A   Clear